This is the latest recevied weather packets stored in our database for station/object DC1MBB-9. If no packets are shown the sender has not sent any weather packets the latest 10 day(s).
| Time | Temp. | Humidity | Pressure | Rain* | Wind** | Luminosity | Snow |
|---|---|---|---|---|---|---|---|
| 1776940501 | 16.11° C | 30% | 968 hPa | - | - | - | - |
| 1776940141 | 15.56° C | 30% | 968 hPa | - | - | - | - |
| 1776939780 | 15.56° C | 30% | 968 hPa | - | - | - | - |
| 1776939419 | 15.56° C | 29% | 968 hPa | - | - | - | - |
| 1776939058 | 15.56° C | 30% | 968 hPa | - | - | - | - |
| 1776938698 | 15° C | 31% | 968 hPa | - | - | - | - |
| 1776938337 | 15° C | 31% | 968 hPa | - | - | - | - |
| 1776937976 | 15° C | 34% | 968 hPa | - | - | - | - |
| 1776937615 | 15° C | 34% | 968 hPa | - | - | - | - |
| 1776937255 | 13.89° C | 35% | 968 hPa | - | - | - | - |
| 1776936894 | 15° C | 33% | 968 hPa | - | - | - | - |
| 1776936533 | 14.44° C | 34% | 968 hPa | - | - | - | - |
| 1776936172 | 14.44° C | 35% | 968 hPa | - | - | - | - |
| 1776935812 | 14.44° C | 34% | 968 hPa | - | - | - | - |
| 1776935451 | 14.44° C | 37% | 968 hPa | - | - | - | - |
| 1776935090 | 13.89° C | 38% | 968 hPa | - | - | - | - |
| 1776934729 | 13.33° C | 40% | 968 hPa | - | - | - | - |
| 1776934369 | 13.33° C | 40% | 968 hPa | - | - | - | - |
| 1776934008 | 12.78° C | 40% | 968 hPa | - | - | - | - |
| 1776933647 | 13.33° C | 40% | 968 hPa | - | - | - | - |
| 1776933286 | 12.78° C | 40% | 968 hPa | - | - | - | - |
| 1776932925 | 12.78° C | 41% | 968 hPa | - | - | - | - |
| 1776932565 | 12.22° C | 41% | 968 hPa | - | - | - | - |
| 1776932204 | 11.67° C | 43% | 968 hPa | - | - | - | - |
| 1776931843 | 12.22° C | 42% | 968 hPa | - | - | - | - |
* Rain since midnight (hover to see other rain measurements)
** Current wind speed in m/s (hover to see current wind gust speed)